| time (UTC) | temp F | wind direction | speed knots | gust knots | rain 1hr in | rain 24hr in | rain mn in | humidity % | barometer mb |
| 20260906231603 | 63 | 304 | 4.3 | 7.8 | 0.00 | 0.10 | 0.00 | 77 | 1015.1 |
| 20260906230107 | 63 | 302 | 5.2 | 10.4 | 0.00 | 0.10 | 0.00 | 78 | 1015.3 |
| 20260906224604 | 63 | 302 | 3.5 | 7.0 | 0.00 | 0.10 | 0.00 | 77 | 1015.4 |
| 20260906223101 | 63 | 330 | 1.7 | 5.2 | 0.00 | 0.10 | 0.00 | 77 | 1015.6 |
| 20260906221605 | 63 | 16 | 3.5 | 8.7 | 0.00 | 0.10 | 0.00 | 78 | 1015.6 |
| 20260906220104 | 63 | 40 | 5.2 | 8.7 | 0.00 | 0.10 | 0.00 | 78 | 1015.6 |
| 20260906214602 | 63 | 12 | 7.0 | 10.4 | 0.00 | 0.10 | 0.00 | 78 | 1015.6 |
| 20260906213100 | 63 | 41 | 6.1 | 9.6 | 0.00 | 0.10 | 0.00 | 78 | 1015.5 |
| 20260906211608 | 63 | 12 | 4.3 | 10.4 | 0.00 | 0.10 | 0.00 | 77 | 1015.5 |
| 20260906210109 | 63 | 32 | 7.0 | 11.3 | 0.00 | 0.10 | 0.00 | 76 | 1015.5 |
| 20260906204600 | 63 | 34 | 4.3 | 9.6 | 0.00 | 0.10 | 0.00 | 77 | 1015.5 |
| 20260906203105 | 63 | 30 | 5.2 | 10.4 | 0.00 | 0.10 | 0.00 | 77 | 1015.5 |
| 20260906201605 | 62 | 36 | 4.3 | 9.6 | 0.00 | 0.10 | 0.00 | 77 | 1015.7 |
| 20260906200111 | 62 | 24 | 5.2 | 9.6 | 0.00 | 0.10 | 0.00 | 76 | 1015.9 |
| 20260906194604 | 62 | 38 | 3.5 | 10.4 | 0.00 | 0.10 | 0.00 | 75 | 1015.9 |
| 20260906193056 | 62 | 21 | 7.0 | 13.0 | 0.00 | 0.10 | 0.00 | 76 | 1015.8 |
| 20260906191604 | 62 | 17 | 8.7 | 13.9 | 0.00 | 0.10 | 0.00 | 75 | 1015.8 |
| 20260906190109 | 62 | 60 | 7.8 | 17.4 | 0.00 | 0.10 | 0.00 | 73 | 1016.0 |
| 20260906184626 | 62 | 31 | 10.4 | 15.6 | 0.00 | 0.10 | 0.00 | 74 | 1016.0 |
| 20260906183100 | 62 | 60 | 4.3 | 14.8 | 0.00 | 0.10 | 0.00 | 76 | 1016.1 |
| 20260906181603 | 61 | 19 | 7.0 | 13.0 | 0.00 | 0.10 | 0.00 | 80 | 1015.9 |
| 20260906174603 | 57 | 67 | 6.1 | 10.4 | 0.00 | 0.10 | 0.00 | 91 | 1016.4 |
| 20260906173110 | 57 | 259 | 1.7 | 5.2 | 0.00 | 0.10 | 0.00 | 91 | 1017.9 |
| 20260906171608 | 57 | 344 | 0.9 | 3.5 | 0.00 | 0.10 | 0.00 | 92 | 1018.2 |
| 20260906170100 | 57 | 0 | 0.0 | 1.7 | 0.00 | 0.10 | 0.00 | 92 | 1018.0 |
| 20260906164601 | 57 | 0 | 0.0 | 1.7 | 0.00 | 0.10 | 0.00 | 92 | 1018.0 |
| 20260906163104 | 56 | 0 | 0.0 | 1.7 | 0.00 | 0.10 | 0.00 | 92 | 1018.1 |
| 20260906161556 | 56 | 0 | 0.0 | 4.3 | 0.00 | 0.10 | 0.00 | 92 | 1017.7 |
| 20260906160057 | 55 | 348 | 0.9 | 7.0 | 0.00 | 0.10 | 0.00 | 92 | 1018.0 |
| 20260906154603 | 55 | 304 | 2.6 | 7.8 | 0.00 | 0.10 | 0.00 | 91 | 1018.2 |
| 20260906153057 | 55 | 346 | 6.1 | 11.3 | 0.00 | 0.10 | 0.00 | 90 | 1018.6 |
| 20260906151558 | 55 | 278 | 10.4 | 15.6 | 0.00 | 0.10 | 0.00 | 88 | 1018.5 |
| 20260906150107 | 55 | 309 | 7.0 | 14.8 | 0.00 | 0.10 | 0.00 | 88 | 1018.8 |
| 20260906144602 | 57 | 292 | 12.2 | 18.2 | 0.00 | 0.10 | 0.00 | 85 | 1019.0 |
| 20260906143059 | 58 | 350 | 2.6 | 5.2 | 0.00 | 0.10 | 0.00 | 88 | 1018.6 |
| 20260906141600 | 58 | 40 | 5.2 | 8.7 | 0.00 | 0.10 | 0.00 | 88 | 1018.2 |
| 20260906140116 | 58 | 34 | 2.6 | 6.1 | 0.00 | 0.10 | 0.00 | 87 | 1018.3 |
| 20260906134622 | 58 | 41 | 2.6 | 7.8 | 0.00 | 0.14 | 0.00 | 88 | 1018.2 |
| 20260906133100 | 57 | 55 | 5.2 | 8.7 | 0.00 | 0.14 | 0.00 | 89 | 1017.9 |
| 20260906131557 | 57 | 355 | 2.6 | 6.1 | 0.00 | 0.14 | 0.00 | 90 | 1018.0 |
| 20260906130147 | 56 | 47 | 3.5 | 8.7 | 0.00 | 0.14 | 0.00 | 90 | 1018.1 |
| 20260906124609 | 56 | 61 | 4.3 | 10.4 | 0.00 | 0.14 | 0.00 | 90 | 1018.3 |
| 20260906123102 | 56 | 62 | 4.3 | 9.6 | 0.00 | 0.14 | 0.00 | 91 | 1018.3 |
| 20260906121609 | 56 | 25 | 4.3 | 9.6 | 0.00 | 0.14 | 0.00 | 90 | 1018.0 |
| 20260906120111 | 56 | 9 | 7.8 | 12.2 | 0.00 | 0.14 | 0.00 | 90 | 1018.2 |
| 20260906114602 | 56 | 22 | 5.2 | 10.4 | 0.00 | 0.14 | 0.00 | 89 | 1018.4 |
| 20260906113100 | 56 | 10 | 5.2 | 12.2 | 0.00 | 0.14 | 0.00 | 89 | 1018.2 |
| 20260906111555 | 56 | 65 | 7.8 | 13.0 | 0.00 | 0.14 | 0.00 | 88 | 1018.3 |
| 20260906110100 | 56 | 23 | 7.0 | 13.9 | 0.00 | 0.14 | 0.00 | 88 | 1018.3 |
| 20260906104558 | 57 | 352 | 5.2 | 12.2 | 0.00 | 0.14 | 0.00 | 87 | 1018.5 |
| 20260906103100 | 57 | 11 | 5.2 | 12.2 | 0.00 | 0.14 | 0.00 | 87 | 1018.5 |
| 20260906101604 | 57 | 36 | 7.0 | 13.0 | 0.00 | 0.14 | 0.00 | 87 | 1018.4 |
| 20260906100059 | 56 | 34 | 8.7 | 16.5 | 0.00 | 0.14 | 0.00 | 88 | 1018.5 |
| 20260906094558 | 57 | 17 | 10.4 | 15.6 | 0.00 | 0.14 | 0.00 | 86 | 1018.5 |
| 20260906093059 | 57 | 9 | 5.2 | 13.9 | 0.00 | 0.14 | 0.00 | 86 | 1018.6 |
| 20260906091556 | 58 | 332 | 7.8 | 16.5 | 0.00 | 0.14 | 0.00 | 85 | 1018.7 |
| 20260906090104 | 58 | 348 | 7.8 | 17.4 | 0.00 | 0.14 | 0.00 | 85 | 1018.8 |
| 20260906084559 | 57 | 307 | 8.7 | 13.0 | 0.00 | 0.14 | 0.00 | 86 | 1019.4 |
| 20260906083105 | 57 | 5 | 5.2 | 11.3 | 0.00 | 0.14 | 0.00 | 87 | 1019.4 |
| 20260906081558 | 56 | 322 | 3.5 | 7.8 | 0.00 | 0.14 | 0.00 | 87 | 1019.3 |
| 20260906080106 | 56 | 319 | 3.5 | 11.3 | 0.00 | 0.14 | 0.00 | 87 | 1019.1 |
| 20260906074559 | 57 | 344 | 4.3 | 11.3 | 0.00 | 0.14 | 0.00 | 86 | 1019.1 |
| 20260906073059 | 57 | 15 | 4.3 | 8.7 | 0.00 | 0.14 | 0.00 | 86 | 1019.2 |
| 20260906071556 | 58 | 348 | 7.0 | 14.8 | 0.00 | 0.14 | 0.00 | 85 | 1019.2 |
| 20260906064559 | 58 | 355 | 3.5 | 11.3 | 0.00 | 0.14 | 0.00 | 85 | 1020.0 |
| 20260906063058 | 58 | 355 | 7.0 | 18.2 | 0.00 | 0.14 | 0.00 | 85 | 1020.0 |
| 20260906061626 | 58 | 11 | 10.4 | 15.6 | 0.00 | 0.14 | 0.00 | 85 | 1019.7 |
| 20260906060123 | 57 | 346 | 7.8 | 14.8 | 0.00 | 0.14 | 0.00 | 85 | 1020.0 |
| 20260906054606 | 57 | 360 | 7.0 | 15.6 | 0.01 | 0.14 | 0.14 | 85 | 1020.0 |
| 20260906053104 | 57 | 38 | 7.0 | 18.2 | 0.01 | 0.14 | 0.14 | 84 | 1019.5 |
| 20260906051609 | 57 | 275 | 9.6 | 14.8 | 0.01 | 0.14 | 0.14 | 83 | 1019.6 |
| 20260906044559 | 58 | 360 | 9.6 | 15.6 | 0.00 | 0.13 | 0.13 | 81 | 1019.4 |
| 20260906043107 | 58 | 355 | 10.4 | 19.1 | 0.01 | 0.13 | 0.13 | 81 | 1019.4 |
| 20260906041605 | 57 | 19 | 11.3 | 20.0 | 0.09 | 0.13 | 0.13 | 82 | 1018.8 |
| 20260906040106 | 58 | 18 | 12.2 | 20.9 | 0.09 | 0.13 | 0.13 | 82 | 1018.8 |
| 20260906034605 | 58 | 20 | 11.3 | 18.2 | 0.09 | 0.13 | 0.13 | 81 | 1019.1 |
| 20260906033058 | 59 | 15 | 7.0 | 14.8 | 0.08 | 0.12 | 0.12 | 78 | 1019.5 |
| 20260906031604 | 61 | 323 | 7.8 | 13.9 | 0.00 | 0.04 | 0.04 | 68 | 1020.0 |
| 20260906030100 | 60 | 38 | 9.6 | 16.5 | 0.00 | 0.04 | 0.04 | 69 | 1018.5 |
| 20260906024559 | 61 | 346 | 9.6 | 15.6 | 0.00 | 0.04 | 0.04 | 68 | 1018.1 |
| 20260906023109 | 61 | 5 | 8.7 | 19.1 | 0.00 | 0.04 | 0.04 | 68 | 1017.9 |
| 20260906021558 | 62 | 32 | 11.3 | 20.0 | 0.00 | 0.04 | 0.04 | 66 | 1017.7 |
| 20260906020057 | 62 | 27 | 10.4 | 16.5 | 0.00 | 0.04 | 0.04 | 65 | 1017.8 |
| 20260906014607 | 63 | 9 | 9.6 | 17.4 | 0.00 | 0.04 | 0.04 | 63 | 1017.8 |
| 20260906013100 | 64 | 69 | 7.8 | 13.0 | 0.00 | 0.04 | 0.04 | 60 | 1017.8 |
| 20260906011606 | 66 | 28 | 7.8 | 13.9 | 0.00 | 0.04 | 0.04 | 57 | 1017.6 |
| 20260906010059 | 66 | 65 | 7.8 | 12.2 | 0.00 | 0.04 | 0.04 | 57 | 1017.7 |
| 20260906004604 | 67 | 355 | 8.7 | 13.9 | 0.00 | 0.04 | 0.04 | 56 | 1017.9 |
| 20260906003101 | 68 | 5 | 7.8 | 14.8 | 0.00 | 0.04 | 0.04 | 53 | 1017.9 |
| 20260906001559 | 69 | 95 | 10.4 | 14.8 | 0.00 | 0.04 | 0.04 | 53 | 1017.9 |
| 20260906000058 | 69 | 52 | 8.7 | 13.9 | 0.00 | 0.04 | 0.04 | 51 | 1017.9 |
| 20260905234606 | 71 | 15 | 7.0 | 11.3 | 0.00 | 0.04 | 0.04 | 47 | 1018.1 |
| 20260905233116 | 72 | 19 | 3.5 | 9.6 | 0.00 | 0.04 | 0.04 | 45 | 1018.0 |